User: anonymous   Login
Location: Trondheim
(63.4170°N, 10.4170°E)
Time: 21:39:58
(UTC+02:00)
Language:

Iridium 82 - Orbit

View from above orbital plane
View from above orbital plane
View from above satellite
View from above satellite

Ground track
Ground track

The orbit data is extracted from the following two-line orbital elements,

1 25467U 98051A   18109.40734798  .00000596  00000-0  42246-4 0  9990
2 25467  86.4021 240.7575 0182291  20.2696 340.5644 14.89838425 32424
Epoch (UTC): 19 April 2018 09:46:34
Eccentricity: 0.0182291
inclination: 86.4021°
perigee height: 471 km
apogee height: 725 km
right ascension of ascending node: 240.7575°
argument of perigee: 20.2696°
revolutions per day: 14.89838425
mean anomaly at epoch: 340.5644°
orbit number at epoch: 3242

The dashed part of the orbit path shows where the satellite is in the earth's shadow,  

DLR